OpenBCM V1.13 (Linux)

Packet Radio Mailbox

DB0FHN

[JN59NK Nuernberg]

 Login: GUEST





  
LU9DCE > KEP      11.08.19 20:34l 240 Lines 11921 Bytes #999 (0) @ WW
BID : 29755_LU9DCE
Read: DJ6UX DF7EAV GUEST
Subj: TLE 11 08
Path: DB0FHN<DB0BLO<DB0ERF<DB0RES<DB0EEO<DB0GOS<ON0AR<GB7CIP<N3HYM<LU9DCE
Sent: 190811/1801Z 29755@LU9DCE.TOR.BA.ARG.SOAM LinBPQ6.0.17

            __    _  _  ___  ____   ___  ____    ____  ____  ____
           (  )  / )( \/ _ \(    \ / __)(  __)  (  _ \(  _ \/ ___)
           / (_/\) \/ (\__  )) D (( (__  ) _)    ) _ ( ) _ (\___ \
           \____/\____/(___/(____/ \___)(____)  (____/(____/(____/
               ESTACION DE PACKET RADIO - BUENOS AIRES (GF05OM)
                   BOLETINES INFORMATIVOS PROGRAMADOS (BIP)
                  SLACKWARE LINUX - HELLOCODELINUX@GMAIL.COM
                          https://slacko.home.blog
+----------------------------------------------------------------------------+
OSCAR 7
1  7530U 74089B   19222.85173509 -.00000026 +00000-0 +11726-3 0  9996
2  7530 101.7480 189.9769 0011708 244.4355 168.6717 12.53639334046949
OSCAR 11 (UoSAT 2)
1 14781U 84021B   19222.93248545 +.00000029 +00000-0 +96108-5 0  9992
2 14781 097.6087 245.1261 0009509 137.4913 222.7040 14.83099508885658
OSCAR 19 (LUSAT)
1 20442U 90005G   19222.87732844 -.00000005 +00000-0 +14340-4 0  9997
2 20442 098.6505 164.7954 0011770 358.6656 001.4495 14.32930289543936
EYESAT A
1 22825U 93061C   19221.55506069 -.00000005 +00000-0 +16177-4 0  9991
2 22825 098.9060 211.3827 0007921 201.0358 159.0498 14.30063863349090
ITAMSAT
1 22826U 93061D   19222.94365491 -.00000006 +00000-0 +15499-4 0  9995
2 22826 098.9001 212.7884 0008720 185.6154 174.4931 14.30397678349517
RADIO ROSTO
1 23439U 94085A   19222.90774299 -.00000039 +00000-0 +86860-4 0  9995
2 23439 064.8184 030.0652 0146079 102.8943 258.8342 11.27568713013898
JAS 2
1 24278U 96046B   19222.93869899 -.00000038 +00000-0 -61185-5 0  9994
2 24278 098.5447 009.1386 0351361 101.9355 262.1397 13.53093004134750
TECHSAT 1B
1 25397U 98043D   19222.89240522 -.00000020 +00000-0 +10437-4 0  9990
2 25397 098.6902 162.3980 0000509 179.6625 180.4554 14.23668787095228
ISS (ZARYA)
1 25544U 98067A   19223.20985160  .00001115  00000-0  26628-4 0  9994
2 25544  51.6450  88.2760 0005764 242.1270 219.6998 15.51050586183792
PCSAT
1 26931U 01043C   19222.42571492 -.00000024 +00000-0 +22548-4 0  9991
2 26931 067.0492 227.6004 0007427 274.9530 085.0723 14.30548994932446
SAUDISAT 1C
1 27607U 02058C   19222.47861289 -.00000046 +00000-0 +14465-4 0  9993
2 27607 064.5534 248.2072 0079323 246.4062 112.8696 14.75563599894697
CUTE-1
1 27844U 03031E   19222.91099722 +.00000036 +00000-0 +35859-4 0  9990
2 27844 098.6842 230.3286 0008812 232.9385 127.0988 14.22188847835814
CUBESAT XI 4
1 27848U 03031J   19222.91829568 +.00000028 +00000-0 +32405-4 0  9998
2 27848 098.6918 230.8473 0008594 245.8727 114.1552 14.21782815835677
MOZHAYETS 4
1 27939U 03042A   19223.39372312  .00000100  00000-0  26570-4 0  9991
2 27939  98.0481 358.1844 0011850 256.8623 103.1265 14.66795368848410
CUBESAT XI 5
1 28895U 05043F   19222.89921848 +.00000084 +00000-0 +24965-4 0  9991
2 28895 097.9662 003.8277 0016879 179.0124 181.1115 14.63681033735036
CUTE-1.7+APD II
1 32785U 08021C   19222.79840339 +.00000144 +00000-0 +21089-4 0  9998
2 32785 097.5512 220.0120 0014726 087.2525 273.0377 14.88329236611511
DELFI C3
1 32789U 08021G   19222.93646448 +.00000893 +00000-0 +63560-4 0  9994
2 32789 097.4608 270.9860 0010681 307.7562 052.2698 15.07042218614882
SEEDS
1 32791U 08021J   19222.52605309 +.00000109 +00000-0 +16371-4 0  9991
2 32791 097.5287 225.7785 0014880 065.2169 295.0596 14.90847196611900
YUBELEINY
1 32953U 08025A   19223.48830568  .00000020  00000-0  75656-4 0  9991
2 32953  82.5014 111.3152 0020031  13.8841 346.2788 12.43090839508997
PRISM (HITOMI)
1 33493U 09002B   19222.74594164 +.00000700 +00000-0 +66759-4 0  9993
2 33493 098.1208 145.7127 0015661 014.0382 346.1270 14.96698683573071
KKS-1 (KISEKI)
1 33499U 09002H   19222.84304498 +.00000068 +00000-0 +18125-4 0  9990
2 33499 098.3477 063.2377 0010085 043.4026 316.7975 14.75453628566638
SWISSCUBE
1 35932U 09051B   19222.43315364 +.00000089 +00000-0 +31152-4 0  9995
2 35932 098.5930 029.9634 0007766 013.3763 346.7638 14.56298606524410
BEESAT
1 35933U 09051C   19222.43293210 +.00000076 +00000-0 +28243-4 0  9994
2 35933 098.5953 031.7448 0006273 028.3890 331.7647 14.56386087524481
ITUPSAT 1
1 35935U 09051E   19222.93350113  .00000052  00000-0  23197-4 0  9994
2 35935  98.6063  32.4947 0008477  21.4632 338.6918 14.55544210524383
XIWANG-1 (HOPE-1)
1 36122U 09072B   19223.47102524 -.00000052  00000-0 -26038-4 0  9996
2 36122 100.0746 223.3253 0007223 220.2210 139.8374 13.16350435463950
TISAT 1
1 36799U 10035E   19222.89636743 +.00000274 +00000-0 +33732-4 0  9990
2 36799 098.1622 016.8329 0010865 271.4882 088.5090 14.91130994492494
JUGNU
1 37839U 11058B   19222.49628248  .00000284  00000-0  94704-5 0  9997
2 37839  19.9629  14.5639 0018801 189.1877 213.9414 14.12655055404731
SRMSAT
1 37841U 11058D   19221.26038194 +.00000288 +00000-0 +13014-4 0  9997
2 37841 019.9730 079.8982 0011875 043.2702 274.1945 14.10636027403882
M-CUBED/EXP-1 PRIME
1 37855U 11061F   19222.83427419  .00000348  00000-0  25808-4 0  9993
2 37855 101.7101 145.7083 0173090 279.3140  78.8536 15.05526003424773
HORYU 2
1 38340U 12025D   19222.66592081 +.00000105 +00000-0 +23345-4 0  9998
2 38340 098.3256 262.8360 0010518 320.6213 039.4229 14.75735661378565
STRAND 1
1 39090U 13009E   19222.63554389  .00000012  00000-0  19344-4 0  9991
2 39090  98.4845  67.6945 0010064 126.8680 233.3430 14.35092299337982
SOMP
1 39134U 13015E   19222.44894170  .00000808  00000-0  46089-4 0  9990
2 39134  64.8616 209.5035 0034014 295.5566  64.2046 15.20237159348616
BEESAT 3
1 39135U 13015F   19222.92609184  .00000550  00000-0  37022-4 0  9994
2 39135  64.8679 227.0082 0028589 309.7149  50.1457 15.17535118348328
BEESAT 2
1 39136U 13015G   19222.98322406  .00000311  00000-0  25666-4 0  9996
2 39136  64.8673 230.8015 0021832 301.9878  57.9125 15.16954370348251
CUBEBUG 1
1 39153U 13018D   19222.81543139  .00000081  00000-0  17480-4 0  9997
2 39153  97.9801 320.6465 0017562  30.9548 329.2695 14.80581464339678
ZACUBE
1 39417U 13066B   19222.80537207 +.00000131 +00000-0 +22962-4 0  9998
2 39417 097.5622 233.3222 0057920 218.6664 141.0397 14.81133132308902
TRITON 1
1 39427U 13066M   19222.89919424  .00000182  00000-0  37113-4 0  9993
2 39427  97.6804 197.0005 0113798 355.9317   4.0952 14.67862006306149
GOMX 1
1 39430U 13066Q   19223.38119998  .00000155  00000-0  36691-4 0  9990
2 39430  97.7505 176.4089 0152589  84.9520 276.9079 14.59268676304435
HUMSAT D
1 39433U 13066T   19222.65557478  .00000199  00000-0  24679-4 0  9992
2 39433  97.5499 267.9868 0032225 122.5848 237.8490 14.92222170310970
CUBEBUG 2
1 39440U 13066AA  19222.90486492 +.00000113 +00000-0 +22977-4 0  9990
2 39440 097.6040 218.2055 0078635 272.2144 087.0064 14.75871309306629
FUNCUBE 1
1 39444U 13066AE  19222.91162577 +.00000147 +00000-0 +24477-4 0  9994
2 39444 097.5600 235.4197 0057207 211.8056 147.9699 14.81955407307221
UWE-3
1 39446U 13066AG  19222.54718234  .00000131  00000-0  24249-4 0  9992
2 39446  97.5821 224.9491 0068527 247.1057 112.2911 14.78405756307076
SPROUT
1 39770U 14029E   19223.31651869  .00000322  00000-0  41727-4 0  9990
2 39770  97.8865 326.2679 0007738 271.4613  88.5711 14.87382242282806
UNISAT 6
1 40012U 14033C   19222.82916459 +.00000113 +00000-0 +24372-4 0  9995
2 40012 097.7511 087.1339 0056925 287.0264 072.4712 14.73993246276518
DUCHIFAT 1
1 40021U 14033M   19222.84243913 +.00000097 +00000-0 +15806-4 0  9998
2 40021 097.9228 147.6120 0011552 231.4361 128.5822 14.90656038279469
QB50P1
1 40025U 14033R   19222.72301413 +.00000181 +00000-0 +25241-4 0  9997
2 40025 097.9040 142.3200 0011056 242.5964 117.4128 14.88963500278701
CHUBUSAT 1
1 40300U 14070C   19223.29577031  .00000542  00000-0  26563-4 0  9997
2 40300  97.3239 296.1175 0018682 226.7140 174.0476 15.22128248264174
NUDT-PHONESAT
1 40900U 15049B   19223.52929537  .00001801  00000-0  79649-4 0  9990
2 40900  97.4376 232.3373 0013223   3.4181 114.7815 15.22920592215857
ZDPS 2A
1 40901U 15049C   19223.41276237  .00000856  00000-0  45630-4 0  9993
2 40901  97.4607 228.4605 0014283  22.5483  89.4969 15.17780484215387
ZDPS 2B
1 40902U 15049D   19223.45292171  .00000865  00000-0  46295-4 0  9991
2 40902  97.4555 225.9589 0014193  19.5983 139.5075 15.17613605215367
XW-2A
1 40903U 15049E   19223.38945363  .00001323  00000-0  33024-4 0  9998
2 40903  97.3350 266.4492 0012342 316.6039 166.7687 15.41979087218528
KAITUO 1A
1 40904U 15049F   19223.42517506  .00000401  00000-0  24708-4 0  9993
2 40904  97.4684 224.5156 0015513  27.2117 107.4402 15.15392644215137
OBJECT G
1 40905U 15049G   19223.40613140  .00000517  00000-0  31723-4 0  9996
2 40905  97.4726 221.9935 0016390  22.0604  83.8512 15.14318553215000
XW-2C
1 40906U 15049H   19223.40982498  .00000695  00000-0  39895-4 0  9997
2 40906  97.4690 224.5996 0015413  18.8662  87.1970 15.15714352215136
XW-2D
1 40907U 15049J   19223.45601700  .00000526  00000-0  30881-4 0  9996
2 40907  97.4666 224.3247 0014632  16.0348 140.5016 15.15904317215159
LILACSAT 2
1 40908U 15049K   19223.40763758  .00000565  00000-0  34787-4 0  9996
2 40908  97.4806 223.0624 0016763  21.9069 113.7033 15.13826937214938
XW-2F
1 40910U 15049M   19223.49352213  .00000820  00000-0  44372-4 0  9993
2 40910  97.4640 226.4297 0015485   8.7592 118.3470 15.17357148215174
XW-2B
1 40911U 15049N   19223.49045294  .00000644  00000-0  37105-4 0  9992
2 40911  97.4690 225.0150 0014679  17.1231 135.5657 15.15834329215055
KAITUO 1B
1 40912U 15049P   19223.31066542  .00000881  00000-0  44428-4 0  9992
2 40912  97.4501 229.9688 0014690 351.4562 133.9497 15.19676514215452
TIANWANG 1C (TW-1C)
1 40926U 15051B   19223.41609951  .00009195  00000-0  13073-3 0  9996
2 40926  97.1324 269.5389 0008440 161.2690 324.7291 15.56560860218519
